MST,Max TemperatureF,Mean TemperatureF,Min TemperatureF,Max Dew PointF,MeanDew PointF,Min DewpointF,Max Humidity, Mean Humidity, Min Humidity, Max Sea Level PressureIn, Mean Sea Level PressureIn, Min Sea Level PressureIn, Max VisibilityMiles, Mean VisibilityMiles, Min VisibilityMiles, Max Wind SpeedMPH, Mean Wind SpeedMPH, Max Gust SpeedMPH,PrecipitationIn, CloudCover, Events, WindDirDegrees
2012-2-1,46,31,15,26,19,13,84,58,31,30.35,30.21,30.02,10,10,10,14,3,17,0.00,1,,112
2012-2-2,40,32,23,32,29,20,100,80,59,30.01,29.88,29.80,10,7,1,12,4,16,0.05,7,Snow,249
2012-2-3,42,30,18,30,27,20,92,73,54,30.23,30.08,29.90,10,6,1,10,3,13,T,7,Snow,94
2012-2-4,47,35,22,26,21,16,96,62,28,30.32,30.25,30.18,10,10,10,13,2,20,0.00,7,,127
2012-2-5,40,35,30,28,25,22,85,70,54,30.28,30.21,30.11,10,8,0,18,5,23,0.01,8,Snow,210
2012-2-6,40,30,20,30,27,17,100,77,54,30.20,30.09,30.04,10,6,1,14,4,17,0.05,7,Snow,276
2012-2-7,43,28,13,23,17,10,88,62,36,30.33,30.27,30.20,10,10,10,13,3,17,0.00,0,,97
2012-2-8,50,38,25,34,24,18,88,60,31,30.32,30.24,30.16,10,10,9,13,3,16,T,5,Rain,48
2012-2-9,47,37,26,32,25,21,96,67,38,30.24,30.19,30.14,10,10,10,20,7,25,0.00,2,,2
2012-2-10,50,34,18,25,20,14,88,61,34,30.31,30.23,30.16,10,10,10,16,5,35,0.00,0,,45
2012-2-11,55,37,18,24,21,17,92,60,27,30.20,30.02,29.81,10,10,10,26,7,32,0.00,0,,101
2012-2-12,45,39,32,32,30,22,96,68,40,29.92,29.80,29.70,10,6,1,24,9,30,0.12,8,Snow,194
2012-2-13,41,36,30,32,30,28,96,80,64,29.89,29.83,29.79,10,6,1,12,3,15,0.07,7,Snow,267
2012-2-14,40,33,25,31,28,22,92,76,59,29.86,29.82,29.71,10,5,0,17,5,21,0.18,7,Fog-Snow,342
2012-2-15,41,28,15,25,20,13,91,68,44,30.11,30.01,29.87,10,10,10,15,4,18,0.00,3,,83
2012-2-16,50,35,20,25,20,16,88,60,31,30.21,30.15,30.08,10,10,10,13,4,16,0.00,1,,58
2012-2-17,50,34,18,20,17,10,92,57,21,30.17,30.09,29.99,10,10,10,16,7,21,0.00,0,,31
2012-2-18,49,34,18,20,16,6,88,54,19,30.13,30.03,29.94,10,10,10,12,5,13,0.00,0,,56
2012-2-19,41,32,22,32,26,15,92,66,40,29.91,29.78,29.71,10,4,0,21,7,26,0.23,7,Fog-Snow,210
2012-2-20,34,18,2,15,10,-1,87,63,39,30.32,30.15,29.92,10,10,10,12,4,15,0.00,2,,41
2012-2-21,45,28,10,23,16,6,88,61,33,30.30,30.22,30.15,10,10,10,12,4,16,0.00,1,,48
2012-2-22,51,37,22,30,25,19,88,64,39,30.19,30.04,29.81,10,10,10,16,7,20,0.00,0,,32
2012-2-23,44,32,20,29,17,3,92,57,22,30.16,29.91,29.73,10,10,10,30,11,39,0.00,1,,11
2012-2-24,48,31,14,18,10,1,81,50,18,30.37,30.27,30.19,10,10,10,14,6,20,0.00,0,,11
2012-2-25,57,37,17,19,13,2,92,52,11,30.25,30.03,29.88,10,10,10,25,8,35,0.00,0,,91
2012-2-26,45,32,18,16,5,-11,73,42,10,30.12,30.03,29.87,10,10,10,15,5,21,0.00,0,,14
2012-2-27,60,40,19,36,19,6,73,47,21,30.05,29.85,29.64,10,10,10,30,14,41,0.01,6,Rain,157
2012-2-28,40,34,28,36,28,21,92,76,59,30.14,29.85,29.62,10,5,0,29,15,36,0.41,8,Fog-Rain-Snow,215
2012-2-29,44,33,21,24,21,18,92,64,36,30.20,30.08,29.91,10,10,10,14,4,17,0.00,2,,165